Weather in Tsetserleg

Mongolia     47°28′13″N   101°28′26″E
temp.,
°C
wind,
m/s
gust,
m/s
humid.,
%
clouds,
%
prec.,
mm/h
press.,
hPa
HPBL,
m
25 june, fri
fri2523:00+9w2281100 0.0 100815
02:00+8wsw227786 0.0 100911
05:00+7wsw22736 0.0 100811
08:00+12wsw22614 0.0 1008109
11:00+18ese11360 0.0 1005789
14:00+21e22320 0.0 10031301
17:00+21e44370 0.0 10021069
20:00+17e37634 0.0 1004143
26 june, sat
sat2623:00+13ese116173 0.0 100610
02:00+11ssw22665 0.0 100711
05:00+9wsw11715 0.0 100710
08:00+14sw12480 0.0 1006105
11:00+21ese11325 0.0 1004459
14:00+24e443588 0.0 1002722
17:00+24e4736100 0.0 1001556
20:00+20se125914 0.0 100215
27 june, sun
sun2723:00+14nw11679 0.0 100411
02:00+12nw2270100 0.0 100710
05:00+11nw227490 0.0 100810
08:00+14wnw116588 0.0 1008168
11:00+19e11535 0.0 1006717
14:00+23e324712 0.0 1003939
17:00+16nnw5576100 2.4 1007117
20:00+16ene238056 3.6 100593
28 june, mon
mon2823:00+12ene118597 0.1 100610
02:00+11ssw11912 1.4 100511
05:00+10w1192100 0.0 100410
08:00+13nnw1181100 0.0 100355
11:00+17ne2162100 0.0 999307
14:00+20n4450100 2.0 996982
17:00+12wnw14157898 3.3 10021022
20:00+10nw61278100 3.3 10051062
29 june, tue
tue2923:00+9wnw81375100 0.2 1006942
02:00+9nw61177100 0.5 10061238
05:00+7nnw2694100 1.6 1007448
08:00+7nw3887100 2.2 10091015
11:00+8nnw4781100 0.5 10091075
14:00+10n4776100 1.1 10101125
17:00+10nne567198 0.4 10111137
20:00+9nne23737 0.5 1011420